Preview of NWS' New Version of Forecast
This preview is not operational and should not be used for support decisions.

Regional Weather Roundup (RWR)

Issued by Wakefield, VA (AKQ)

                            
000
ASUS41 KAKQ 170513
RWRAKQ

REGIONAL WEATHER ROUNDUP
NATIONAL WEATHER SERVICE WAKEFIELD VA
1200 AM EST MON DEC 17 2018

Note: "fair" indicates few or no clouds below 12,000 feet with no
significant weather and/or obstructions to visibility. * = Denotes
station may not report precipitation (e.g., rain,snow,etc.),
thunder or fog.

VAZ042-051-052>054-056-170600-
NORTHERN VIRGINIA
  
CITY           SKY/WX    TMP DP  RH WIND       PRES   REMARKS
WASH NATIONAL  CLOUDY    44  37  76 NW5       29.92F                  
DULLES         CLOUDY    42  39  89 CALM      29.91F                  
FORT BELVOIR   CLOUDY    43  38  81 W7        29.91F                  
QUANTICO       CLOUDY    43  39  86 CALM      29.93F                  
FREDERICKSBRG* CLOUDY    41  41 100 CALM      29.92F                  
STAFFORD*      CLOUDY    42  42 100 CALM      29.96F                  
WARRENTON      MOCLDY    41  37  85 CALM      29.91F                  
CULPEPER*      FAIR      38  37  94 CALM      29.92F                  
MANASSAS*      CLOUDY    41  39  93 CALM      29.92F                  
LEESBURG*      CLOUDY    41  39  93 CALM      29.91F                  
WINCHESTER     CLOUDY    43  36  75 NW7       29.92F                  
FRONT ROYAL*   MOCLDY    43  37  81 NE6       29.90F                  
LURAY*         FAIR      37  37 100 SE3         N/A                   
$$

VAZ048-049-060>072-079>083-170600-
CENTRAL AND SOUTH CENTRAL VIRGINIA
  
CITY           SKY/WX    TMP DP  RH WIND       PRES   REMARKS
RICHMOND       FAIR      39  36  89 CALM      29.94F                  
CHESTERFIELD*  FAIR      36  36 100 CALM      29.95S FOG              
PETERSBURG*    FAIR      35  34  95 CALM      29.96S FOG              
HANOVER        FOG       37  35  92 CALM      29.95F VSB 3/4          
TAPPAHANNOCK*  CLOUDY    43  38  84 NW6       29.94S                  
QUINTON*       MOCLDY    39  39 100 MISG      29.94S                  
CHARLOTTSVILLE FAIR      43  38  82 SW3       29.91F                  
GORDONSVILLE*  FAIR      33  33 100 CALM      29.92S FOG              
ORANGE*        MOCLDY    32  32 100 SW5       29.92F FOG              
LOUISA*        FAIR      31  31 100 SW3       29.96F                  
BUMPASS*       FAIR      35  34  95 CALM      29.92F                  
FARMVILLE*     FOG       42  42 100 SW3       29.94S VSB 1/4          
CREWE*         MOCLDY    41  40  96 CALM      29.95S                  
FORT PICKETT*  CLOUDY   N/A N/A N/A CALM      29.95S VSB 1/4          
CHASE CITY*    CLOUDY    38  38 100 CALM      29.96S VSB 1/2          
CLARKSVILLE*   FAIR      41  41 100 CALM      29.97R                  
SOUTH HILL*    CLOUDY    38  38 100 CALM      30.01F VSB 1/4          
LAWRENCEVILLE* CLOUDY    42  41  97 MISG      29.96S                  
EMPORIA*       FAIR      41  41 100 CALM      29.98F                  
$$

VAZ088>098-170600-
SOUTHEAST VIRGINIA
  
CITY           SKY/WX    TMP DP  RH WIND       PRES   REMARKS
NORFOLK        CLOUDY    46  39  76 NW10      29.92F                  
VIRGINIA BEACH MOCLDY    44  38  79 NW18G26   29.91S                  
NORFOLK NAVAL  MOCLDY    46  38  73 NW14      29.94F                  
WEST POINT*    CLOUDY    43  39  87 W6        29.95S                  
SALUDA*        CLOUDY    42  42 100 W3        29.93R                  
NEWPORT NEWS   CLOUDY    44  38  79 NW8       29.94R                  
LANGLEY AFB    CLOUDY    45  39  79 NW12      29.93S                  
FORT EUSTIS    DRIZZLE   44  39  83 NW6       29.92S                  
WILLIAMSBURG*  CLOUDY    45  39  81 CALM      29.94F                  
HR EXEC AP*    NOT AVBL                                               
FRANKLIN*      MOCLDY    42  41  98 W5        29.95F                  
US460-WAKEFLD  FAIR      41  39  93 CALM      29.94F                  
$$

VAZ020-022-025-037-045-170600-
WEST CENTRAL AND SOUTHWEST VIRGINIA
  
CITY           SKY/WX    TMP DP  RH WIND       PRES   REMARKS
STAUNTON*      FOG       31  31 100 CALM      29.94F VSB 1/2          
WAYNESBORO*    FAIR      40  35  85 SW5       29.93S                  
HOT SPRINGS VA CLOUDY    37  37 100 W20G31    29.92F                  
LYNCHBURG      FAIR      40  36  86 S6        29.95S                  
DANVILLE       FAIR      40  38  93 SW6       29.98F                  
SOUTH BOSTON*  FAIR      45  38  76 CALM      29.97F                  
MARTINSVILLE   FAIR      39  39  97 CALM      30.01S                  
ROANOKE        FAIR      49  38  65 NW18G30   30.00S                  
BLACKSBURG     CLOUDY    43  40  89 W7        30.07S                  
DUBLIN*        CLOUDY    45  40  83 W10G17    30.07S                  
MARION*        CLOUDY    44  43  97 W14       30.10S                  
HILLSVILLE*    MOCLDY    41  40  97 W10       30.04S                  
RICHLANDS*     CLOUDY    38  38  99 W6        30.10F FOG              
WISE*          CLOUDY    41  41 100 W7        30.13F FOG              
ABINGDON*      CLOUDY    42  42 100 W6        30.14S FOG              
$$

MDZ021>025-VAZ099-100-170600-
SOUTHERN MARYLAND AND THE DELMARVA PENINSULA
  
CITY           SKY/WX    TMP DP  RH WIND       PRES   REMARKS
PATUXENT RIVER FAIR      43  41  93 NW8       29.91S                  
BAY BRIDGE APT MOCLDY    41  39  93 NW10      29.89F                  
LEONARDTOWN    FAIR      37  37 100 W3        29.92F                  
DOVER          CLOUDY    40  39  95 NW10      29.86R                  
GEORGETOWN     CLOUDY    42  39  89 NW8       29.86F FOG              
EASTON         CLOUDY    42  39  88 NW8       29.91F                  
CAMBRIDGE      CLOUDY    43  39  87 NW8       29.88F                  
SALISBURY      CLOUDY    41  41 100 W6        29.87F                  
TANGIER        NOT AVBL                                               
OCEAN CITY     CLOUDY    41  39  93 NW12G18   29.85F                  
WALLOPS ISLAND CLOUDY    43  38  82 NW12G18   29.88S                  
ACCOMACK*      CLOUDY    43  39  86 NW13G21   29.90S                  
$$

NCZ012>017-030>032-170600-
NORTH CENTRAL AND EASTERN NORTH CAROLINA
  
CITY           SKY/WX    TMP DP  RH WIND       PRES   REMARKS
ROANOKE RAPIDS CLOUDY    43  43 100 CALM      29.97R                  
RALEIGH        FAIR      43  40  89 W3        29.99S                  
ELIZABETH CITY FAIR      45  41  86 NW9       29.93F                  
AHOSKIE*       FAIR      43  43  98 CALM      29.97S                  
EDENTON*       NOT AVBL                                               
CURRITUCK*     FAIR      46  40  80 MISG      29.93R                  
KILL DEVIL HLS FAIR      46  43  88 NW5       29.91F                  
MANTEO         MOCLDY    47  42  82 N6        29.92F                  
CAPE HATTERAS  CLOUDY    54  49  83 NW10G22   29.91R                  
TARBORO*       MOCLDY    48  46  93 N5        29.97R                  
GOLDSBORO      FAIR      51  43  75 W7        29.96R                  
WASHINGTON     MOCLDY    51  47  88 NW7       29.96R                  
GREENVILLE     FAIR      50  46  87 CALM      29.98S                  
NEW BERN       FAIR      53  46  77 W8        29.96R                  
WILMINGTON     FAIR      50  44  80 W8        29.99S                  
$$

VAZ048-170600-
ELSEWHERE
  
CITY           SKY/WX    TMP DP  RH WIND       PRES   REMARKS
HARRISBURG PA  CLOUDY    41  37  86 N3        29.87F                  
BALTIMORE      FAIR      36  35  96 W3        29.89F                  
ANNAPOLIS      MOCLDY    43  37  79 W6        29.89F                  
ANDREWS AFB    CLOUDY    41  37  85 NW8       29.89F                  
PHILADELPHIA   CLOUDY    39  36  89 NW13      29.84F                  
HENDERSON NC   FAIR      43  37  78 W3        29.97S                  
GREENSBORO     FAIR      44  40  85 W7        29.99F                  
ROCKY MOUNT    FAIR      49  43  80 W5        29.98R                  
$$

VAZ100-170600-
MARINE
  
STATION/POSITION TIME  TEMP    WIND        PRES    WAVE   SWELL
                       AIR SEA DIR/SP/G            HT/PER HT/PER
                 (UTC) (F)     (DEG/KT/KT) (MB)    (FT/S) (FT/S)
BRANDYWINE LGT   0442                      1010.6F
CAPE MAY NJ      0442   40 45  190/  2/ 11 1009.7F
LEWES DE         0442   41 44  320/ 19/ 22 1010.7F
15NM E FENWICK I 0450      49              1009.5R   8/ 9
OCEAN-CITY-INLET 0442   41 46  330/ 13/ 17 1011.1F
WACHAPREAGUE VA  0442   42 47  310/  5/  9 1011.8F
THOMAS POINT MD  0500   41 43  290/  9/ 10 1013.2F
COVE POINT MD    0442   41     340/  8/ 12 1013.3S
SOLOMONS ISLAND  0448   41 44  290/  4/  5 1012.6F
BISHOPS HEAD MD  0442   42 46  310/ 12/ 16 1012.8S
PINEY POINT MD   0442          330/ 11/ 12   N/A
POTOMAC MD       0430   41     320/ 14/ 16 1012.5R
CAMBRIDGE MD     0442   42 43              1011.9F
LEWISETTA VA     0442   42 44  320/  7/  9 1013.0F
RAPPAHANNOCK LGT 0442          310/ 15/ 18 1013.7R
STINGRAY PT      0450   42     330/ 10/ 12 1014.2R
YORK RVR RNG VA  0448   44     320/ 12/ 15 1013.9S
YORKTOWN VA      0442   45 45  290/  9/ 14 1013.2R
DOMINION TERM VA 0442   45     330/ 11/ 14 1013.9S
KIPTOPEKE VA     0442      46  310/ 19/ 21   N/A
CAPE HENRY VA    0448   45     300/ 13/ 18 1011.8R
WILLOUBY STN VA  0442   45     320/ 13/ 15 1013.1F
S CRANEY ISL VA  0448   45     320/  5/ 11 1013.5S
CAPE HENRY BUOY  0500      49                N/A     4/ 9   2/11
1ST LANDING BUOY 0500   44 45  330/ 16/ 17 1013.1    2/ 3
64NM E OF VA BCH 0450   47 53  310/ 25/ 29 1011.3R   8/ 6   3/10
DUCK PIER NC     0442   48 48  330/ 19/ 23 1012.2F
44100 DUCK FRF   0445      50                N/A     4/ 9   2/11
44056 DUCK FRF   0500      48                N/A     4/ 8   2/11
OREGON INLET NC  0436   49 53  300/ 12/ 16 1013.0R
HATTERAS NC      0442   54 56  290/ 13/ 15 1012.4R
CAPE LOOKOUT NC  0400          270/ 17/ 21 1013.8F
$$